星链-30564 (STARLINK-30564 )

导读

STARLINK-30564是美国SpaceX星链互联网卫星星座的成员,于2023年10月9日发射升空,属于星链项目批量部署的卫星之一。星链计划旨在搭建全球卫星互联网,为偏远地区等提供网络服务,该卫星入轨后将助力提升星链系统的全球覆盖能力与网络服务容量。

基本信息
目录编号:
58043
目录名称:
STARLINK-30564
国际标识:
2023-156R
轨道中心:
EARTH
卫星名称:
星链-30564
卫星全名:
星链-30564 (STARLINK-30564 )
卫星状态:
在轨 (已飞行1061 天)
发射日期:
2023-10-09 UTC
国别 :
美国 (US)
星等 :
--
轨道信息
数据来源 国际轨道数据
星历时间: 2026-09-04T13:08:59+0800
3小时前
查看轨道信息
半长轴: 6842.818km
偏心率: 0.0000988
轨道倾角: 53.159°
近地点辐角 51.068°
升交点赤经 327.933°
平近点角 309.041°
近地点: 464.004km
远地点: 465.358km
周期: 93.888分钟
每日圈数: 15.337349
详细信息
固有亮度:
5
最大亮度:
0.3
卫星平台:
Starlink v2.0 mini
覆盖范围:
全球
运营商:
太空探索技术公司
运营商所在国:
美国
制造商(研发单位):
太空探索技术公司
制造商所在国:
美国
使用方式:
暂无
卫星简介
星链(Starlink)计划是由太空探索技术公司(SpaceX)提出的一个巨型低轨卫星互联网星座项目,计划在2019年至2024年间在太空搭建由约1.2万颗卫星组成的“星链”网络,其中1584颗将部署在地球上空550千米处的近地轨道,并从2020年开始工作。该卫星仍在工作。
2D轨道图
3D轨道图
轨道高度分析图
轨道倾角分析图
轨道综合分析图
查看轨道综合分析图